Weather History for Richmond (NSW), NW

Change the Weather History Date:

Wednesday, December 18, 2013

  Actual Average (YSSY) Record (YSSY)
Temperature  
Mean Temperature 73 °F -  
Max Temperature 84 °F 85 °F 86 °F (2008)
Min Temperature 62 °F 63 °F 60 °F (2006)
Cooling Degree Days 8    
Growing Degree Days 23 (Base 50)    
Moisture  
Dew Point 58 °F    
Average Humidity 65    
Maximum Humidity 94    
Minimum Humidity 42    
Precipitation  
Precipitation 0.00 in 0.12 in - ()
Sea Level Pressure  
Sea Level Pressure 30.17 in    
Wind  
Wind Speed 3 mph ()    
Max Wind Speed 15 mph    
Max Gust Speed -    
Visibility 6.2 miles    
Events      
Averages and records for this station are not official NWS values.
T = Trace of Precipitation, MM = Missing Value Source: Averaged Metar Reports

Daily Weather History Graph

Daily Weather History Graph

Search for Another Location

Airport:

Trip Planner

Search our weather history database for the weather conditions in past years. The results will help you decide how hot, cold, wet, or windy it might be!

Date:

Astronomy

Dec. 18, 2013 Rise Set
Actual Time 5:41 AM AEDT 8:04 PM AEDT
Civil Twilight 5:12 AM AEDT 8:33 PM AEDT
Nautical Twilight 4:37 AM AEDT 9:09 PM AEDT
Astronomical Twilight 3:58 AM AEDT 9:48 PM AEDT
Moon 8:32 PM AEDT (12/18) 6:18 AM AEDT (12/18)
Length of Visible Light 15h 21m
Length of Day
14h 22m
Full, 100% of the Moon is Illuminated
Dec 18
Full
Dec 26
Last Quarter
Jan 1
New
Jan 8
First Quarter
Jan 16
Full

Hourly Weather History & Observations

Time (AEDT) Temp. Heat Index Dew Point Humidity Pressure Visibility Wind Dir Wind Speed Gust Speed Precip Events Conditions
12:00 AM 68.0 °F - 60.8 °F 78% 30.12 in 6.2 mi East 5.8 mph - N/A   Scattered Clouds
12:30 AM 66.2 °F - 60.8 °F 83% 30.12 in 6.2 mi East 3.5 mph - N/A   Scattered Clouds
1:00 AM 66.2 °F - 60.8 °F 83% 30.12 in 6.2 mi Calm Calm - N/A   Unknown
1:30 AM 64.4 °F - 60.8 °F 88% 30.12 in 6.2 mi Calm Calm - N/A   Unknown
2:00 AM 62.6 °F - 60.8 °F 94% 30.12 in 6.2 mi Calm Calm - N/A   Unknown
2:30 AM 62.6 °F - 60.8 °F 94% 30.12 in 6.2 mi Calm Calm - N/A   Unknown
3:00 AM 62.6 °F - 60.8 °F 94% 30.12 in 6.2 mi Calm Calm - N/A   Unknown
3:30 AM 62.6 °F - 60.8 °F 94% 30.12 in 6.2 mi Calm Calm - N/A   Unknown
4:00 AM 62.6 °F - 60.8 °F 94% 30.12 in 6.2 mi Calm Calm - N/A   Unknown
4:30 AM 62.6 °F - 60.8 °F 94% 30.15 in 6.2 mi Calm Calm - N/A   Mostly Cloudy
5:00 AM 62.6 °F - 60.8 °F 94% 30.15 in 6.2 mi Calm Calm - N/A   Overcast
5:30 AM 64.4 °F - 62.6 °F 94% 30.18 in 6.2 mi Calm Calm - N/A   Overcast
6:00 AM 64.4 °F - 62.6 °F 94% 30.18 in 6.2 mi Calm Calm - N/A   Overcast
6:30 AM 66.2 °F - 62.6 °F 88% 30.18 in 6.2 mi Calm Calm - N/A   Overcast
7:00 AM 68.0 °F - 62.6 °F 83% 30.18 in 6.2 mi Calm Calm - N/A   Overcast
7:30 AM 68.0 °F - 62.6 °F 83% 30.21 in 6.2 mi Calm Calm - N/A   Overcast
8:00 AM 69.8 °F - 62.6 °F 78% 30.21 in 6.2 mi Calm Calm - N/A   Overcast
8:30 AM 69.8 °F - 62.6 °F 78% 30.24 in 6.2 mi Calm Calm - N/A   Overcast
9:00 AM 71.6 °F - 62.6 °F 73% 30.24 in 6.2 mi Calm Calm - N/A   Overcast
9:30 AM 71.6 °F - 60.8 °F 69% 30.24 in 6.2 mi NE 2.3 mph - N/A   Mostly Cloudy
10:00 AM 73.4 °F - 59.0 °F 61% 30.24 in 6.2 mi NNW 4.6 mph - N/A   Overcast
10:30 AM 77.0 °F - 59.0 °F 54% 30.24 in 6.2 mi NE 5.8 mph - N/A   Scattered Clouds
11:00 AM 77.0 °F - 60.8 °F 57% 30.24 in 6.2 mi SSE 1.2 mph - N/A   Mostly Cloudy
11:30 AM 78.8 °F - 59.0 °F 51% 30.21 in 6.2 mi South 5.8 mph - N/A   Scattered Clouds
12:00 PM 78.8 °F - 57.2 °F 47% 30.21 in 6.2 mi SE 3.5 mph - N/A   Scattered Clouds
12:30 PM 78.8 °F - 57.2 °F 47% 30.21 in 6.2 mi NNE 4.6 mph - N/A   Mostly Cloudy
1:00 PM 80.6 °F 80.8 °F 57.2 °F 45% 30.18 in 6.2 mi ENE 4.6 mph - N/A   Unknown
1:30 PM 80.6 °F 80.8 °F 57.2 °F 45% 30.18 in 6.2 mi NNE 4.6 mph - N/A   Scattered Clouds
2:00 PM 82.4 °F 82.0 °F 57.2 °F 42% 30.15 in 6.2 mi East 4.6 mph - N/A   Scattered Clouds
2:30 PM 82.4 °F 82.5 °F 59.0 °F 45% 30.15 in 6.2 mi East 6.9 mph - N/A   Scattered Clouds
3:00 PM 84.2 °F 83.8 °F 59.0 °F 42% 30.15 in 6.2 mi SSE 5.8 mph - N/A   Scattered Clouds
3:30 PM 82.4 °F 82.0 °F 57.2 °F 42% 30.15 in 6.2 mi East 13.8 mph - N/A   Unknown
4:00 PM 82.4 °F 82.0 °F 57.2 °F 42% 30.12 in 6.2 mi East 11.5 mph - N/A   Unknown
4:30 PM 82.4 °F 82.0 °F 57.2 °F 42% 30.12 in 6.2 mi East 11.5 mph - N/A   Unknown
5:00 PM 80.6 °F 80.5 °F 55.4 °F 42% 30.12 in 6.2 mi East 15.0 mph - N/A   Unknown
5:30 PM 78.8 °F - 53.6 °F 42% 30.12 in 6.2 mi East 15.0 mph - N/A   Unknown
6:00 PM 78.8 °F - 53.6 °F 42% 30.15 in 6.2 mi East 12.7 mph - N/A   Unknown
6:30 PM 77.0 °F - 53.6 °F 44% 30.15 in 6.2 mi ESE 11.5 mph - N/A   Unknown
7:00 PM 77.0 °F - 53.6 °F 44% 30.15 in 6.2 mi East 10.4 mph - N/A   Unknown
7:30 PM 75.2 °F - 51.8 °F 44% 30.15 in 6.2 mi ENE 8.1 mph - N/A   Unknown
8:00 PM 73.4 °F - 51.8 °F 47% 30.15 in 6.2 mi East 8.1 mph - N/A   Unknown
8:30 PM 71.6 °F - 50.0 °F 46% 30.18 in 6.2 mi East 8.1 mph - N/A   Unknown
9:00 PM 69.8 °F - 51.8 °F 53% 30.18 in 6.2 mi East 6.9 mph - N/A   Unknown
9:30 PM 68.0 °F - 53.6 °F 60% 30.18 in 6.2 mi East 5.8 mph - N/A   Unknown
10:00 PM 68.0 °F - 51.8 °F 56% 30.18 in 6.2 mi ENE 6.9 mph - N/A   Unknown
10:30 PM 66.2 °F - 53.6 °F 64% 30.18 in 6.2 mi East 5.8 mph - N/A   Unknown
11:00 PM 66.2 °F - 55.4 °F 68% 30.21 in 6.2 mi ENE 4.6 mph - N/A   Unknown
11:30 PM 64.4 °F - 55.4 °F 73% 30.21 in 6.2 mi ENE 4.6 mph - N/A   Unknown